EW1931 Weather Reports


Display with metric or nautical units.
time (UTC)temp
F
wind
direction
speed
MPH
gust
MPH
rain 1hr
in
rain 24hr
in
rain mn
in
humidity
%
barometer
mb
20260906224528 67 338 11.0 14.0 0.00 0.00 0.00 69 1011.3
20260906223037 67 338 10.0 15.0 0.00 0.00 0.00 70 1011.3
20260906221509 67 322 11.0 16.0 0.00 0.00 0.00 70 1011.3
20260906220009 67 322 13.0 17.0 0.00 0.00 0.00 69 1011.2
20260906214553 67 317 15.0 19.0 0.00 0.00 0.00 69 1011.2
20260906213056 68 338 9.0 17.0 0.00 0.00 0.00 68 1011.2
20260906211541 68 325 10.0 17.0 0.00 0.00 0.00 68 1011.2
20260906210030 67 317 8.0 11.0 0.00 0.00 0.00 69 1011.4
20260906204523 67 13 3.0 8.0 0.00 0.00 0.00 68 1011.6
20260906203011 67 322 4.0 9.0 0.00 0.00 0.00 68 1011.6
20260906201602 66 333 6.0 11.0 0.00 0.00 0.00 68 1011.6
20260906200052 66 42 4.0 11.0 0.00 0.00 0.00 69 1011.8
20260906194534 66 51 8.0 18.0 0.00 0.00 0.00 69 1011.6
20260906193044 66 42 11.0 18.0 0.00 0.00 0.00 69 1011.7
20260906191519 66 27 11.0 20.0 0.00 0.00 0.00 70 1011.8
20260906190011 65 24 16.0 23.0 0.00 0.00 0.00 70 1011.8
20260906184551 63 18 17.0 27.0 0.00 0.00 0.00 74 1011.9
20260906183047 61 5 19.0 24.0 0.00 0.00 0.00 76 1012.2
20260906181541 59 360 14.0 22.0 0.00 0.00 0.00 79 1012.9
20260906180032 59 331 16.0 24.0 0.00 0.00 0.00 80 1013.0
20260906174505 59 317 18.0 23.0 0.00 0.00 0.00 82 1013.2
20260906173003 59 11 12.0 19.0 0.00 0.00 0.00 86 1013.3
20260906171603 58 313 12.0 19.0 0.00 0.00 0.00 87 1013.3
20260906170055 59 360 9.0 14.0 0.00 0.00 0.00 87 1013.3
20260906164545 59 338 8.0 12.0 0.00 0.00 0.00 87 1013.3
20260906163039 60 338 8.0 11.0 0.00 0.00 0.00 86 1013.2
20260906161538 60 23 5.0 10.0 0.00 0.00 0.00 87 1013.4
20260906160038 60 40 5.0 11.0 0.00 0.00 0.00 87 1013.4
20260906154542 60 5 7.0 10.0 0.00 0.00 0.00 87 1013.6
20260906153038 60 30 8.0 11.0 0.00 0.00 0.00 88 1013.6
20260906151518 60 40 9.0 13.0 0.00 0.00 0.00 87 1013.8
20260906150018 60 30 11.0 15.0 0.00 0.00 0.00 87 1013.8
20260906144611 60 47 15.0 20.0 0.00 0.00 0.00 87 1013.5
20260906143109 60 49 16.0 20.0 0.00 0.00 0.00 86 1013.5
20260906141539 59 38 14.0 18.0 0.00 0.00 0.00 86 1013.8
20260906140039 58 46 8.0 11.0 0.00 0.00 0.00 87 1014.2
20260906134528 58 21 8.0 12.0 0.00 0.00 0.00 88 1014.0
20260906133021 58 17 8.0 13.0 0.00 0.00 0.00 89 1014.0
20260906131509 57 360 10.0 15.0 0.00 0.00 0.00 89 1013.9
20260906130003 57 13 9.0 12.0 0.00 0.00 0.00 90 1014.5
20260906124546 56 5 7.0 14.0 0.00 0.00 0.00 91 1014.3
20260906123045 56 327 10.0 15.0 0.00 0.01 0.00 92 1013.9
20260906121526 55 24 11.0 14.0 0.00 0.01 0.00 92 1014.0
20260906120026 55 12 12.0 16.0 0.00 0.01 0.00 92 1013.8
20260906114525 54 13 12.0 17.0 0.00 0.01 0.00 92 1013.7
20260906113009 54 15 12.0 18.0 0.00 0.01 0.00 92 1013.9
20260906111551 54 12 12.0 16.0 0.00 0.01 0.00 91 1014.0
20260906110051 54 17 12.0 16.0 0.00 0.01 0.00 91 1013.9
20260906104535 54 360 12.0 18.0 0.00 0.01 0.00 91 1013.9
20260906103034 55 13 15.0 24.0 0.00 0.01 0.00 90 1014.1
20260906101512 55 13 16.0 23.0 0.00 0.01 0.00 90 1014.1
20260906100013 55 22 16.0 23.0 0.00 0.01 0.00 89 1014.1
20260906094616 55 19 17.0 25.0 0.00 0.01 0.00 89 1013.9
20260906093119 55 10 17.0 24.0 0.00 0.01 0.00 89 1014.0
20260906091548 55 314 16.0 25.0 0.00 0.01 0.00 88 1014.0
20260906090032 55 5 18.0 24.0 0.00 0.01 0.00 88 1014.2
20260906084528 55 15 16.0 23.0 0.00 0.01 0.00 87 1014.3
20260906083010 55 315 16.0 23.0 0.00 0.01 0.00 87 1014.4
20260906081513 55 13 16.0 22.0 0.00 0.01 0.00 86 1014.6
20260906080049 56 360 19.0 24.0 0.00 0.01 0.00 85 1014.5
20260906074548 56 360 16.0 23.0 0.00 0.01 0.00 84 1014.8
20260906073036 56 24 17.0 24.0 0.00 0.01 0.00 84 1014.9
20260906071532 57 12 18.0 25.0 0.00 0.01 0.00 83 1015.1
20260906070033 57 360 18.0 22.0 0.00 0.01 0.00 82 1015.3
20260906064531 57 5 16.0 25.0 0.00 0.01 0.00 82 1015.5
20260906063034 57 15 18.0 25.0 0.00 0.01 0.00 82 1015.7
20260906061530 57 12 17.0 22.0 0.00 0.01 0.00 82 1015.6
20260906060027 57 20 16.0 22.0 0.00 0.01 0.00 81 1015.7
20260906054524 58 9 16.0 23.0 0.00 0.01 0.00 80 1015.8
20260906053009 58 16 17.0 24.0 0.00 0.01 0.00 79 1015.6
20260906051504 58 15 17.0 23.0 0.00 0.01 0.00 77 1015.6
20260906050047 58 13 18.0 24.0 0.00 0.01 0.00 76 1015.6
20260906044546 59 13 17.0 25.0 0.00 0.01 0.00 75 1015.4
20260906043025 59 360 17.0 26.0 0.00 0.01 0.00 74 1015.1
20260906041523 59 13 21.0 29.0 0.00 0.01 0.00 73 1014.7
20260906040010 59 5 20.0 26.0 0.00 0.01 0.00 73 1015.0
20260906034502 59 315 17.0 26.0 0.00 0.01 0.00 72 1015.1
20260906033048 60 318 17.0 24.0 0.00 0.01 0.00 71 1015.1
20260906031543 60 5 15.0 24.0 0.00 0.01 0.00 70 1014.7
20260906030040 60 5 16.0 26.0 0.00 0.01 0.00 69 1014.3
20260906024547 61 309 19.0 29.0 0.00 0.01 0.00 68 1014.0
20260906023035 61 5 19.0 28.0 0.00 0.01 0.00 67 1014.0
20260906021533 62 360 17.0 25.0 0.00 0.01 0.00 66 1014.2
20260906020030 63 331 17.0 27.0 0.00 0.01 0.00 65 1014.1
20260906014538 64 360 19.0 26.0 0.00 0.01 0.00 62 1014.0
20260906013037 65 10 16.0 24.0 0.00 0.01 0.00 60 1014.0
20260906011521 67 22 19.0 26.0 0.00 0.01 0.00 56 1013.8
20260906010025 68 17 17.0 24.0 0.00 0.01 0.00 52 1013.7
20260906004519 71 349 18.0 25.0 0.00 0.01 0.00 47 1013.7
20260906003018 74 17 13.0 17.0 0.00 0.01 0.00 38 1013.8
20260906001522 74 5 11.0 20.0 0.00 0.01 0.00 36 1013.7
20260906000057 75 13 13.0 18.0 0.00 0.01 0.00 35 1013.8
20260905234604 75 40 12.0 17.0 0.00 0.01 0.00 35 1013.7
20260905233038 75 65 6.0 16.0 0.00 0.01 0.00 35 1013.7
20260905231540 75 19 8.0 21.0 0.00 0.01 0.00 34 1013.8
20260905230018 75 38 6.0 21.0 0.00 0.01 0.00 34 1013.8